Regional Weather Roundup
Issued by NWS Boston, MA

Home | Current Version | Previous Version | Text Only | Print | Product List | Glossary On
Versions: 1 2 3 4 5 6 7 8 9 10 11 12 13 14 15 16 17 18 19 20 21 22 23 24 25 26 27 28 29 30 31 32 33 34 35 36 37 38 39 40 41 42 43 44 45 46 47 48 49 50
079
ASUS41 KBOX 180810
RWRBOX

REGIONAL WEATHER ROUNDUP
NATIONAL WEATHER SERVICE TAUNTON MA
300 AM EST MON DEC 18 2017

NOTE:  "FAIR" INDICATES FEW OR NO CLOUDS BELOW 12,000 FEET WITH NO
SIGNIFICANT WEATHER AND/OR OBSTRUCTIONS TO VISIBILITY.

MAZALL-180900-
EASTERN MASSACHUSETTS

CITY           SKY/WX    TMP DP  RH WIND       PRES   REMARKS
BOSTON         CLOUDY    22   6  50 N5        30.25S WCI  16
BEVERLY        CLOUDY    20   9  62 CALM      30.23F
LAWRENCE       CLOUDY    21   8  57 NE3       30.24F
BEDFORD        CLOUDY    20  10  65 CALM      30.23F
BLUE HILL        N/A     22   7  52 NE5       30.19S WCI  16
NORWOOD        CLOUDY    23  16  74 CALM      30.25R
MARSHFIELD     CLOUDY    23  14  68 W3        30.24R
PLYMOUTH       CLOUDY    23  14  68 CALM      30.24R
TAUNTON        CLOUDY    22  17  81 CALM      30.23S
NEW BEDFORD    CLOUDY    24  18  77 CALM      30.22F
$$

MAZALL-180900-
CAPE COD AND THE ISLANDS

CITY           SKY/WX    TMP DP  RH WIND       PRES   REMARKS
FALMOUTH       CLOUDY    23  10  58 N3        30.23S
HYANNIS        CLOUDY    23  16  74 CALM      30.22S
CHATHAM        CLOUDY    25  17  72 CALM      30.23F
PROVINCETOWN   CLOUDY    28  13  53 CALM      30.24S
NANTUCKET      CLOUDY    27  20  75 CALM      30.22F
MARTHAS VNYRD  CLOUDY   N/A N/A N/A N3        30.22F
$$

MAZALL-180900-
CENTRAL AND WESTERN MASSACHUSETTS

CITY           SKY/WX    TMP DP  RH WIND       PRES   REMARKS
WORCESTER      CLOUDY    21   8  57 E3        30.16S
FITCHBURG      CLOUDY    22  12  65 CALM      30.23R
ORANGE         NOT AVBL
SPRINGFIELD    CLOUDY    23  13  64 CALM      30.19F
WESTFIELD      CLOUDY    23  11  60 NE5       30.20S WCI  17
NORTH ADAMS    CLOUDY    20   9  62 SE5       30.17S WCI  13
PITTSFIELD     CLOUDY    20  11  68 CALM      30.12R
$$

RIZALL-180900-
RHODE ISLAND

CITY           SKY/WX    TMP DP  RH WIND       PRES   REMARKS
PROVIDENCE     CLOUDY    27  14  58 NE3       30.23F
NEWPORT        CLOUDY    27  11  51 NE3       30.21F
BLOCK ISLAND   CLOUDY    33  17  51 E6        30.21F WCI  28
SMITHFIELD     CLOUDY    24  13  62 CALM      30.20F
WESTERLY       CLOUDY    28  15  58 N3        30.22F
$$

CTZALL-180900-
CONNECTICUT

CITY           SKY/WX    TMP DP  RH WIND       PRES   REMARKS
BRADLEY INTL   CLOUDY    25  14  63 CALM      30.20F
HARTFORD       CLOUDY    28  11  48 CALM      30.22S
BRIDGEPORT     CLOUDY    32  14  47 NE6       30.20S WCI  26
DANBURY        CLOUDY    30  15  53 E3        30.18F
GROTON         CLOUDY    29  11  47 NE5       30.21F WCI  24
NEW HAVEN      CLOUDY    31  16  54 NE3       30.20F
CHESTER        CLOUDY    28   9  43 NE3       30.18S
MERIDEN        CLOUDY    28  12  51 N3        30.21S
WILLIMANTIC    CLOUDY    26  16  65 CALM      30.21F
OXFORD         CLOUDY    27  15  61 CALM      30.17S
$$

MEZ002-015-021-024-NHZ003-005-008-011-012-014-VTZ005-008-180900-
NORTHERN NEW ENGLAND

CITY           SKY/WX    TMP DP  RH WIND       PRES   REMARKS
PORTLAND ME    CLOUDY     8   4  83 W6        30.24F WCI  -2
BANGOR ME      CLOUDY     4  -2  76 CALM      30.23F
CONCORD NH     CLOUDY    13   7  77 CALM      30.22F
MANCHESTER NH  CLOUDY    18  10  71 CALM      30.20F
NASHUA NH      CLOUDY    17  11  77 CALM      30.23F
PORTSMOUTH NH  CLOUDY    17   6  62 CALM      30.22F
JAFFREY NH     CLOUDY    16  10  77 S3        30.14F
KEENE NH       CLOUDY    14  11  87 CALM      30.21S
BURLINGTON VT  CLOUDY    11   4  73 CALM      30.17F
MT. WASHINGTON MOCLDY    10 -15  31 W31         N/A  WCI -12
$$

NYZ052-076-180900-
EASTERN NEW YORK

CITY           SKY/WX    TMP DP  RH WIND       PRES   REMARKS
ALBANY         CLOUDY    18  10  71 N5        30.19S WCI  11
NEW YORK CITY  LGT RAIN  35  25  66 E7        30.18F WCI  29
$$

ANZALL-180900-
MARINE OBSERVATIONS

STATION/POSITION TIME  TEMP    WIND        PRES    VSBY  WAVE
                       AIR SEA DIR/SP/G                  HT/PER
                 (UTC) (F)     (DEG/KT/KT) (MB)    (MI)  (FT/S)
BOSTON BUOY      0750   28 46   10/  4/  6 1023.6F         1/ 9
BUZZARDS BAY     0700   31      80/  6/  7 1024.3R
NANTUCKET SOUND  0750   31 39     CALM     1023.7R         1
MASS BAY-STELLWA 0704   26 46  290/  4/  6 1023.8R         1/11
ISLE OF SHOALS   0700   23     290/  7/  9 1024.2R
S OF BLOCK IS    0743      51                N/A           2/ 8
$$

......................KEY.........................
  SKY/WX - SKY CONDITION/PRESENT WEATHER
  TMP    - TEMPERATURE IN FAHRENHEIT
  DWPT   - DEWPOINT IN FAHRENHEIT
  RH     - RELATIVE HUMIDITY IN PERCENT
  WIND   - DIRECTION AND SPEED IN MPH
  PRES   - MEAN SEA LEVEL PRESSURE IN INCHES OF HG
  WCI    - WIND CHILL INDEX
  VSB    - VISIBILITY IN MILES
  HX     - HEAT INDEX
  TC     - TEMPERATURE IN CELSIUS
  VRB    - VARIABLE WIND DIRECTION
  N/A    - NOT AVAILABLE




USA.gov is the U.S. government's official web portal to all federal, state and local government web resources and services.